RH
9 8 7 6 6 6 7 8 8 10 10 11 14 16 18 20 88 94 96 86 96 89 79 94 96 97 88 89 92 96 86 80 75 71 70 73 69 62 57 53 45 41 40 37 39 41 42 37 35 32 32 29 31 35
8 6 5 5 5 5 6 6 7 9 10 12 13 15 17 20 81 95 96 92 92 93 81 88 98 98 97 88 88 94 94 92 94 84 79 78 76 78 79 72 62 57 55 49 47 41 34 31 33 39 42 36 42 43
6 5 4 4 4 4 5 6 6 8 9 11 14 14 15 21 78 98 98 98 94 97 80 82 92 100 98 95 94 96 98 94 87 96 95 93 88 86 82 84 74 69 67 64 59 55 53 44 41 42 40 38 36 35
6 5 4 4 4 5 5 5 6 7 10 11 13 14 16 23 75 100 100 100 93 100 90 82 88 100 100 98 92 92 89 91 89 88 87 87 79 81 80 92 79 59 71 80 75 64 55 46 46 44 39 34 33 33
6 5 5 5 5 6 6 7 8 10 11 12 13 15 17 26 86 100 100 100 98 95 96 88 79 87 95 97 92 88 80 89 95 88 86 84 75 68 74 82 77 54 60 72 73 58 53 53 50 50 52 47 47 50
6 6 6 7 6 7 8 8 9 11 13 15 16 17 18 30 96 100 100 100 100 95 100 99 87 80 86 98 100 100 91 86 93 94 94 89 81 72 78 91 71 55 70 74 68 68 60 58 61 63 63 63 65 62
6 6 7 8 8 8 9 10 11 14 15 16 18 20 24 59 100 100 100 100 100 98 81 87 100 100 100 92 92 95 95 87 90 99 100 98 90 82 92 97 81 78 78 76 71 73 73 73 72 70 68 65 58 57
7 8 9 9 9 9 11 11 14 17 21 23 24 27 45 93 100 100 100 100 100 98 92 98 100 100 100 99 88 81 83 92 98 98 100 100 96 94 99 89 74 76 90 94 95 96 92 83 76 80 78 79 79 76
7 10 11 10 10 10 10 12 16 19 22 25 30 26 61 100 100 100 100 100 100 100 100 100 100 98 97 99 90 80 69 78 78 93 100 100 100 100 100 100 99 93 95 100 97 100 100 100 94 96 96 98 96 98
9 12 12 12 12 12 12 13 16 20 22 24 28 31 51 100 100 100 100 100 100 100 100 100 77 63 73 79 76 80 85 90 99 100 100 93 100 100 97 94 98 98 100 100 100 100 98 99 98 97 94 95 99 99
10 14 15 14 14 14 13 13 16 20 24 27 30 27 46 85 100 100 100 100 100 100 80 50 43 56 71 76 76 82 94 97 95 100 100 100 100 100 100 100 100 97 98 96 100 100 99 94 92 93 96 98 100 100
11 15 17 16 15 17 16 14 16 20 22 26 29 28 52 97 100 100 100 100 100 100 95 75 83 96 100 100 100 100 100 92 87 83 87 95 100 100 100 100 100 100 99 95 86 88 91 96 94 93 91 93 93 91
12 15 17 20 17 19 23 22 18 17 20 22 24 27 33 70 100 100 100 100 100 100 100 100 100 100 100 100 100 100 100 100 90 79 81 88 97 97 96 93 90 92 89 82 80 82 79 79 83 87 94 93 89 92
12 15 17 18 21 20 24 22 21 17 18 22 22 24 29 42 73 100 100 100 100 100 100 100 100 100 100 100 100 99 99 88 82 81 88 100 100 100 100 93 80 76 78 85 93 95 98 98 96 96 92 88 82 78
12 14 16 16 17 20 28 30 23 18 17 20 22 22 25 29 60 92 100 100 100 100 100 100 100 100 100 100 98 86 80 84 89 88 93 95 100 100 100 100 99 95 93 91 89 90 87 82 76 73 69 68 70 72
13 14 14 14 16 17 20 23 24 22 18 20 21 21 22 26 36 63 97 100 100 100 100 100 100 100 100 97 94 91 89 94 95 94 94 94 94 98 100 97 95 96 95 92 90 84 78 76 74 73 72 72 73 81
13 14 14 15 14 15 16 21 22 20 20 22 22 21 20 23 28 42 75 100 100 100 100 100 100 100 100 100 100 96 97 98 98 99 100 100 98 93 89 88 89 96 96 97 93 87 81 76 74 78 82 86 85 80
13 12 14 14 15 14 15 17 20 23 28 26 26 22 20 21 26 32 47 79 100 100 100 100 100 100 98 90 94 95 93 91 91 90 91 92 97 94 94 97 100 98 94 92 94 90 89 90 87 88 84 72 68 66
13 13 13 14 15 14 13 13 16 22 28 28 33 35 32 26 26 34 38 45 56 78 84 98 100 100 97 81 78 76 77 79 80 80 81 83 89 91 93 92 84 79 74 74 75 77 77 73 67 64 64 58 45 36
18 15 12 13 12 13 14 13 12 14 16 22 27 34 31 29 25 21 23 26 30 39 53 62 75 90 89 94 93 78 60 56 58 62 66 72 76 76 76 75 72 68 70 70 67 64 60 55 53 47 37 32 29 26
16 14 13 12 13 13 12 12 12 12 12 13 14 15 16 16 16 17 19 24 35 37 44 48 56 59 63 69 74 68 54 55 59 60 56 54 55 54 52 53 51 49 48 47 46 41 35 29 25 25 24 19 19 19
16 16 15 14 15 14 12 11 11 10 10 11 11 12 12 12 12 13 13 21 24 26 33 42 48 48 36 34 36 36 41 42 40 36 34 34 33 30 28 28 29 30 32 30 26 23 22 21 18 17 16 16 14 12
17 17 17 17 16 14 12 12 12 11 11 10 10 11 11 11 11 11 12 13 12 12 14 18 22 25 26 29 31 32 31 30 27 27 27 26 26 25 22 20 20 18 18 18 16 15 15 15 14 13 10 10 10 9
15 15 17 16 15 14 14 14 13 12 12 10 9 10 10 10 10 10 12 12 12 12 12 14 14 15 17 18 17 18 20 19 17 17 16 15 14 13 14 14 14 14 13 12 13 13 12 10 9 9 8 8 8 7
14 13 13 13 14 13 12 12 12 12 10 9 8 8 8 9 10 10 9 9 9 10 10 11 12 12 12 12 13 12 12 12 12 12 12 12 11 11 12 12 11 11 11 10 10 9 9 9 8 7 7 8 8 8
12 13 12 11 11 11 11 10 11 10 10 10 10 10 10 10 9 8 8 9 9 9 10 10 10 10 10 10 10 10 10 10 10 10 10 10 10 10 10 10 10 10 9 8 8 8 7 7 7 8 8 9 8 8
10 11 12 12 12 11 11 11 11 10 10 10 10 9 10 10 10 10 9 9 9 8 8 8 8 8 8 8 9 9 9 9 9 9 9 9 8 8 8 8 8 8 8 8 8 8 8 8 9 9 8 7 7 7
8 9 10 10 10 11 11 11 11 11 11 11 10 10 10 10 9 10 10 10 10 10 10 10 10 11 11 10 10 10 10 9 9 9 9 9 9 8 8 8 8 8 7 8 8 8 8 7 7 7 7 7 6 6
9 8 8 8 8 7 7 7 8 8 9 10 10 11 11 11 10 10 10 10 10 10 10 10 10 10 10 11 11 11 10 10 9 9 8 8 7 7 7 7 7 7 7 7 8 8 8 8 8 7 7 6 6 6
8 8 8 8 8 8 8 8 8 8 7 7 7 7 7 8 8 9 9 10 10 10 10 10 10 10 9 9 9 8 8 8 7 7 7 7 7 7 7 7 8 8 7 7 7 8 7 7 7 7 7 7 7 8
9 9 8 8 8 8 9 8 9 9 8 8 8 8 8 9 9 9 9 9 10 10 10 10 10 10 10 10 9 8 8 7 7 7 8 8 8 8 8 8 7 7 7 8 8 8 8 8 8 8 8 8 7 7
12 11 10 10 10 9 9 10 10 10 10 9 9 8 8 8 9 9 10 10 10 10 9 9 9 8 8 8 8 8 8 9 9 9 9 10 9 8 7 8 8 8 8 8 8 8 8 8 8 7 8 8 8 9
18 16 14 13 12 12 12 12 12 11 11 10 10 9 9 9 10 10 9 9 9 9 9 9 9 9 9 9 9 10 10 10 10 10 10 9 8 8 8 8 9 10 9 9 8 8 8 8 8 9 9 10 10 10
Wind_Speed
82 80 82 76 70 70 71 73 75 76 76 76 77 80 81 87 94 87 79 74 71 72 67 60 55 50 44 39 34 30 27 23 19 15 11 5 3 4 7 9 9 9 10 12 13 14 15 16 15 14 14 11 10 13
72 78 73 66 62 62 64 68 73 74 72 73 76 84 83 88 97 91 82 78 74 76 72 64 60 55 51 44 40 36 32 29 27 23 19 16 12 8 6 4 4 5 4 3 2 2 3 4 3 4 4 4 7 10
72 70 69 60 59 59 62 67 69 70 71 75 79 83 84 91 99 93 85 81 76 77 76 71 65 61 56 51 46 43 39 35 32 30 27 24 22 19 16 14 12 9 7 9 10 11 11 10 8 9 10 13 15 18
65 63 61 56 55 58 65 70 70 68 74 76 78 82 86 95 101 95 88 84 79 79 79 76 70 66 62 58 54 49 46 42 38 35 33 31 29 28 26 24 23 19 18 20 22 21 23 21 19 19 21 22 24 27
57 57 55 53 54 58 66 68 66 68 75 78 79 83 88 99 103 97 90 85 81 79 80 79 76 71 67 64 60 55 52 49 45 41 39 36 34 31 31 33 35 25 25 28 30 29 32 32 32 33 34 34 36 39
52 51 51 51 55 60 68 70 71 74 78 81 84 87 92 100 103 97 91 86 82 79 80 82 78 75 70 69 67 64 60 56 52 49 46 43 43 36 35 41 40 29 30 36 37 38 38 40 41 42 44 46 47 49
48 48 50 54 57 63 69 72 73 75 77 81 84 88 95 104 103 97 89 87 86 83 80 80 80 77 78 77 74 70 66 63 60 55 52 51 50 44 42 50 45 40 40 41 42 43 44 45 47 49 51 53 55 57
45 46 51 56 58 67 76 76 77 78 80 81 85 92 101 105 103 96 89 88 86 83 81 77 78 84 84 81 79 76 72 69 65 62 60 59 56 52 50 57 52 50 50 51 51 52 54 55 56 58 59 61 62 64
44 47 53 56 60 68 75 78 78 81 86 88 90 96 101 105 102 96 93 90 87 85 83 80 82 85 87 88 87 82 78 75 71 69 67 66 61 59 59 60 59 59 59 59 60 60 63 65 65 66 67 68 69 71
45 49 54 57 62 72 78 79 81 82 85 88 90 95 105 110 105 101 98 101 100 94 91 90 87 84 88 90 88 86 83 80 77 76 74 70 69 70 69 68 67 67 68 68 68 68 69 70 70 71 72 73 75 76
46 50 56 60 65 72 76 78 81 84 85 89 95 100 108 112 110 107 104 103 102 100 97 89 80 79 78 80 83 87 89 88 85 83 81 76 76 78 78 77 78 77 76 77 77 77 78 79 79 79 78 78 79 81
47 52 58 61 68 75 77 78 81 84 87 90 94 100 107 112 111 110 107 105 102 99 93 84 80 76 76 78 79 79 83 86 86 86 86 82 82 84 85 85 85 85 85 85 85 86 85 85 85 84 83 82 83 85
48 53 59 63 68 77 81 82 83 86 87 89 93 101 108 111 113 112 108 105 101 96 93 88 85 86 84 82 83 84 85 83 80 80 80 81 83 86 87 87 87 88 87 87 87 86 86 86 85 85 85 87 90 91
49 53 59 65 70 76 81 83 84 85 86 89 93 98 106 110 113 112 110 107 102 100 99 95 94 93 91 91 92 91 89 86 82 78 77 78 79 81 82 84 85 85 85 85 84 84 86 86 88 90 92 94 96 98
49 53 58 63 70 77 83 85 85 85 87 88 90 93 100 106 111 113 111 108 107 106 104 102 101 100 99 98 97 95 92 91 88 86 86 85 86 87 87 87 86 88 89 90 91 93 94 95 97 99 100 103 104 106
49 53 58 64 68 75 82 85 86 88 87 88 90 90 94 100 106 111 113 112 111 111 110 108 106 104 104 102 100 99 97 95 96 94 93 93 93 93 93 94 95 96 97 98 99 100 102 103 104 106 108 110 111 111
49 52 57 63 68 72 81 86 88 88 87 88 90 90 91 93 99 106 112 115 116 115 114 113 110 109 108 107 106 105 103 103 101 99 98 98 98 99 100 101 103 103 104 104 105 107 108 109 111 111 112 114 117 120
48 51 54 59 66 71 76 84 88 89 90 91 92 92 91 91 94 100 107 115 117 118 117 115 115 114 113 113 113 112 111 109 107 105 105 105 105 106 107 108 108 109 110 111 112 113 114 115 116 118 120 124 126 129
46 49 53 56 61 67 72 79 88 90 91 93 94 94 95 95 95 96 99 104 111 117 119 119 119 118 119 120 120 120 118 116 114 113 112 112 112 113 114 114 115 116 117 118 120 120 121 124 126 127 127 130 130 126
43 47 50 52 56 61 67 72 80 90 94 94 96 96 97 96 95 94 94 95 99 104 109 113 117 121 122 123 123 122 122 120 120 121 121 121 121 122 122 122 123 123 124 125 126 127 128 129 129 128 124 121 118 109
42 45 47 49 51 56 61 66 72 77 83 91 95 96 95 94 93 93 92 92 93 95 97 98 101 107 113 119 122 125 124 123 122 122 121 122 122 122 123 124 124 125 125 124 125 124 123 121 118 113 105 100 97 95
38 40 44 46 49 51 53 57 63 66 69 74 82 89 92 91 90 91 92 93 94 96 98 100 101 103 106 108 111 114 116 117 119 119 119 118 118 117 115 114 113 113 112 111 110 108 104 103 101 96 93 90 90 88
33 36 40 44 48 50 51 51 53 55 60 63 65 69 77 83 86 89 88 90 91 93 94 95 96 99 101 100 99 99 100 100 100 100 100 100 100 100 101 101 101 102 101 99 96 93 92 90 88 87 84 80 79 79
30 33 37 40 43 46 48 50 52 53 55 56 55 59 63 65 68 71 77 83 86 87 88 88 88 89 91 92 93 94 94 94 94 94 94 94 93 89 89 87 87 88 87 84 82 81 81 80 77 75 74 71 70 69
29 30 32 34 37 39 42 45 47 49 48 48 47 48 50 50 54 59 64 67 67 69 73 76 79 81 83 85 85 85 85 86 85 84 84 83 81 79 78 76 75 76 75 74 71 69 68 69 68 66 64 63 63 64
26 28 29 30 31 33 34 37 39 41 44 44 44 44 44 45 46 47 47 50 53 55 59 62 65 68 71 73 73 74 74 73 73 71 70 69 67 65 64 65 65 65 66 65 63 61 60 60 60 60 60 59 58 59
21 22 23 25 26 27 28 29 30 32 34 36 37 39 40 42 43 44 44 45 46 47 49 50 51 53 53 54 55 56 56 57 57 57 57 58 58 58 57 56 56 57 57 57 57 58 57 56 55 56 55 53 52 52
20 21 21 22 22 23 24 25 26 27 29 30 31 32 34 35 36 38 39 40 41 43 44 45 46 47 47 48 48 49 50 49 50 50 51 51 51 52 53 53 53 53 52 52 52 52 51 49 49 47 46 45 43 43
17 18 19 20 20 20 21 21 22 23 24 25 26 26 27 29 30 31 32 34 35 37 38 39 40 41 42 43 44 44 45 46 46 47 49 49 49 48 47 47 46 46 46 44 44 43 42 41 42 41 39 38 36 36
14 15 15 16 17 17 18 19 20 21 21 22 23 24 25 26 27 28 29 30 32 32 34 35 36 37 38 38 39 39 40 40 41 41 41 40 40 40 40 39 39 39 39 37 35 35 34 33 33 33 33 32 32 31
13 14 15 16 16 16 17 18 18 19 20 21 21 22 23 23 24 24 25 26 27 27 28 29 30 32 33 34 35 35 36 35 35 33 33 32 32 33 34 34 33 31 30 28 27 27 28 28 29 29 29 28 27 26
13 14 16 16 16 18 19 19 20 20 20 20 20 21 21 22 22 23 24 25 26 27 27 28 28 29 29 29 28 28 27 25 24 25 26 26 28 30 29 27 25 24 23 23 23 23 22 23 23 23 23 23 22 22
12 13 15 17 18 18 19 19 20 19 20 20 20 20 21 21 22 23 23 23 24 24 23 23 23 23 22 22 21 21 21 19 20 21 24 26 24 22 20 18 18 19 20 21 21 21 21 20 19 19 19 19 19 18
Wind_Direction
272 269 264 260 256 250 243 237 235 232 232 229 224 222 219 214 212 214 214 216 218 221 222 222 225 229 229 229 232 234 238 245 248 255 265 276 314 3 16 30 48 61 71 81 91 107 120 120 126 129 138 149 161 177
271 264 262 257 252 242 236 232 231 228 227 224 220 217 216 212 211 212 213 215 216 219 221 222 223 227 230 230 232 234 236 240 245 249 253 259 261 264 276 308 349 10 9 8 22 91 114 127 145 193 208 230 236 242
267 264 262 257 248 240 229 226 226 224 219 217 215 213 214 210 210 211 212 214 216 218 221 222 223 226 229 231 232 235 237 238 243 247 248 251 255 260 264 266 266 270 282 276 276 282 281 283 270 259 263 269 271 270
262 259 255 249 239 230 221 221 221 218 214 213 213 211 210 209 209 209 211 214 216 217 220 223 223 226 228 232 233 234 238 240 241 245 250 253 255 258 261 262 263 269 263 267 273 279 280 284 281 276 268 268 273 279
254 251 246 238 230 223 215 213 214 213 211 211 211 209 208 208 208 209 210 214 216 219 220 223 225 226 229 232 235 236 238 240 242 244 248 252 254 256 260 263 264 270 272 267 271 277 282 285 286 285 283 281 283 285
245 242 237 229 222 216 211 210 209 208 206 207 207 207 207 207 207 208 210 214 216 219 220 222 227 229 231 233 235 238 239 241 243 246 248 251 255 256 260 261 263 265 265 268 271 274 278 279 280 280 282 283 284 286
240 234 229 222 216 210 207 205 205 205 206 206 205 205 204 204 206 207 209 215 217 219 221 223 224 229 233 235 236 237 240 243 245 246 249 252 255 257 259 261 267 266 265 266 269 272 274 277 278 280 282 283 285 286
231 226 221 217 211 204 202 204 203 203 203 205 205 203 202 203 205 207 209 216 219 222 223 223 225 228 232 236 238 240 240 243 246 247 249 251 254 257 258 262 265 268 267 268 270 274 277 278 279 279 281 284 286 287
224 219 216 213 210 205 204 202 203 204 204 203 205 203 203 205 206 207 209 213 218 221 223 225 226 227 230 234 237 239 241 244 246 249 251 254 257 258 258 263 266 267 268 270 271 272 274 277 279 281 282 283 285 286
219 213 212 210 208 205 204 203 203 205 206 206 204 207 204 203 206 209 212 215 214 217 219 222 226 228 231 235 239 241 243 245 247 250 253 256 259 262 263 265 267 270 271 273 275 277 279 280 282 283 284 285 285 286
214 209 210 208 207 205 206 205 206 205 206 207 207 207 207 207 207 209 213 217 221 223 224 226 229 231 236 238 241 242 244 246 246 248 251 254 258 260 263 265 266 268 270 273 275 277 280 281 282 282 283 284 283 284
211 205 207 207 207 204 206 206 207 208 208 209 211 210 208 209 210 213 215 217 221 225 228 229 234 237 239 240 241 244 246 247 248 250 252 254 256 258 260 262 264 267 269 271 273 275 277 278 279 280 281 282 284 286
209 205 204 207 207 206 206 207 209 211 212 213 213 213 212 212 213 215 217 220 223 225 227 229 232 237 238 238 241 244 246 247 248 249 252 255 257 260 262 263 264 266 268 271 272 274 276 277 278 280 281 283 285 287
211 206 205 206 208 210 211 211 212 213 214 216 216 216 217 216 215 217 219 221 223 226 228 228 230 234 237 239 240 242 245 248 249 250 251 254 256 259 261 263 266 268 270 271 272 273 274 275 277 279 281 283 286 288
214 210 208 207 208 209 211 213 214 215 216 218 220 220 220 220 220 219 220 222 224 226 229 230 232 234 237 239 241 244 246 249 251 252 253 254 256 258 261 264 266 267 268 270 271 273 274 276 278 281 284 287 289 291
217 214 211 208 209 209 210 213 215 218 219 219 222 223 222 223 223 223 223 224 227 229 230 232 234 236 239 242 244 245 247 248 250 252 255 257 258 260 263 265 266 268 270 272 273 275 278 280 283 284 286 287 289 290
217 216 215 212 211 210 210 212 215 218 221 222 224 226 227 226 226 225 225 227 229 231 233 234 236 238 240 241 244 246 248 250 251 253 254 256 258 261 263 265 266 268 270 272 275 276 279 281 283 285 287 287 289 289
220 218 217 216 214 213 213 213 215 218 219 221 223 226 228 229 230 229 228 228 231 234 236 237 238 240 242 244 246 247 249 250 252 254 256 258 260 261 263 265 267 270 273 275 277 279 280 282 284 285 286 287 289 292
224 223 221 220 218 218 217 215 215 218 220 221 222 226 227 228 229 230 232 232 233 235 237 238 240 242 244 246 247 249 251 253 255 257 258 259 261 263 265 267 269 271 274 276 277 279 281 282 283 285 288 289 290 292
224 225 225 225 224 222 221 221 222 221 222 223 225 228 230 231 231 232 234 235 236 238 240 241 242 243 245 248 250 253 254 255 256 257 258 260 261 264 266 268 270 272 274 276 278 279 281 283 284 285 287 289 290 292
224 226 228 227 227 227 226 225 226 226 226 227 228 231 233 234 235 235 236 237 239 240 243 244 245 246 246 248 251 253 254 256 257 260 261 263 264 265 268 271 273 274 276 277 278 280 282 283 285 286 288 289 291 291
224 226 228 230 231 232 232 231 231 231 232 232 232 234 236 237 239 239 238 239 240 241 242 242 245 247 249 250 252 254 256 258 260 263 265 266 268 269 271 272 274 274 275 277 279 281 282 283 284 286 288 288 287 286
225 225 227 229 231 233 235 236 236 236 237 237 236 237 238 239 240 242 242 244 245 246 246 247 248 250 252 254 255 257 259 261 262 263 264 265 267 269 271 273 274 276 277 278 279 280 282 283 284 285 283 283 284 284
226 225 226 229 232 233 235 235 238 238 239 239 238 239 240 240 242 243 243 244 246 247 248 250 251 252 254 256 258 259 260 262 264 266 268 269 270 271 273 273 275 276 276 278 280 281 280 280 280 280 281 282 284 286
230 228 229 229 231 234 235 238 240 243 246 246 245 243 243 243 244 243 243 244 246 249 250 251 252 254 256 258 260 261 262 264 265 265 266 267 268 270 272 274 275 276 277 277 277 277 277 279 279 280 283 286 288 289
233 232 232 232 232 235 235 237 238 240 243 245 246 248 248 249 250 250 249 247 246 246 247 248 249 250 252 253 256 257 259 261 263 265 267 268 269 270 271 271 272 274 274 275 276 278 279 280 283 286 288 288 287 287
231 232 233 234 235 235 236 236 235 236 237 240 240 242 243 243 244 245 247 249 250 250 250 251 251 252 254 255 257 259 261 263 264 265 265 266 267 268 269 271 272 273 275 278 280 281 282 284 284 284 284 284 284 285
226 226 226 227 229 232 235 237 236 236 236 237 237 237 237 239 240 241 242 243 244 246 247 249 251 253 255 256 258 259 260 262 263 265 267 267 267 268 270 271 273 275 277 278 279 279 280 280 280 281 281 282 283 285
225 226 225 226 226 227 230 233 235 237 237 237 237 238 239 240 240 240 240 241 242 243 244 245 247 249 250 251 253 254 256 257 258 259 261 263 266 269 272 274 276 276 276 275 275 276 277 279 280 281 282 284 285 286
226 225 223 224 227 229 230 231 233 234 234 234 236 238 239 239 238 237 238 238 239 240 240 241 243 244 246 247 249 251 254 256 259 261 264 267 268 270 271 271 270 269 270 272 274 277 278 278 278 280 283 286 288 289
220 225 228 227 226 228 230 230 230 230 230 229 229 230 233 235 237 238 239 239 240 241 241 242 244 244 245 247 249 251 254 256 259 262 264 264 264 263 264 265 268 272 275 276 274 272 274 276 279 281 283 284 285 286
233 230 228 229 230 231 231 230 230 230 231 232 233 234 236 237 237 238 237 238 238 238 239 240 242 244 246 249 251 254 257 259 261 260 260 262 262 263 267 271 274 276 277 278 279 280 279 276 278 280 283 284 286 287
240 244 243 241 239 238 237 238 238 237 235 235 236 239 241 242 241 243 245 244 245 247 248 251 254 257 259 261 261 261 261 261 260 261 261 260 264 268 268 267 267 269 272 273 275 276 277 278 279 279 281 282 285 288